{"data":{"norad_id":40063,"intl_designator":"2014-036C","name":"GONETS-M 10","alt_names":[],"object_type":"PAYLOAD","status":"ACTIVE","operator":null,"country":"CIS","launch_date":"2014-07-03","launch_site_code":"PLMSC","launch_vehicle":null,"mission":null,"orbit_class":"UNKNOWN","rcs_meters":1.7151,"size_class":null,"mass_kg":null,"dimensions":null,"purposes":[],"wikipedia_slug":null,"has_3d_model":false,"image_url":null,"decayed_at":null,"tle_current":{"epoch":"2026-09-20T05:07:13.076256Z","epoch_age_seconds":62052,"freshness":"FRESH","line1":"1 40063U 14036C   26263.21334579 -.00000040  00000+0 -36079-3 0  9993","line2":"2 40063  82.5064 248.6403 0020718 296.9184  62.9778 12.42947463554054","mean_motion":12.42947463,"eccentricity":0.0020718,"inclination_deg":82.5064,"raan_deg":248.6403,"arg_perigee_deg":296.9184,"mean_anomaly_deg":62.9778,"bstar":-0.00036079,"rev_number":55405,"period_min":115.85364972099,"perigee_km":1477.8234521742,"apogee_km":1510.4429910645,"semimajor_km":7872.2702216194,"source":"CELESTRAK","updated_at":"2026-09-20T09:00:14.015058Z"}}}